Time,B instrument,Bx,By,Bz,sigma B,Ion instrument,Status,Tp_par,Tp_perp,carrot,r_sun,clat,clong,earth_he_angle,n_p,vp_x,vp_y,vp_z,vth_p_par,vth_p_perp
1980-03-05 00:00:53,1,0.885714,1.51429,-3.5,0.341665,1,1,38109.5,23249.0,1692,0.97654438,-1.1517391,103.13452,280.47827,5.08682,360.593,9.72439,0.131349,25.0827,19.5911
1980-03-05 00:02:14,1,0.771429,1.18571,-3.47143,0.266497,1,1,37004.4,15371.1,1692,0.97654212,-1.1518612,103.12231,280.47778,4.45179,359.568,3.05329,2.79881,24.7164,15.9298
1980-03-05 00:03:35,1,0.683333,1.75,-3.53333,0.310018,1,1,35860.4,22257.1,1692,0.97654098,-1.1519222,103.11035,280.47754,4.73777,361.736,14.4153,1.40496,24.3313,19.1687
1980-03-05 00:04:56,1,0.8,2.55714,-3.34286,0.291373,1,1,45147.5,22380.5,1692,0.97653985,-1.1519833,103.09839,280.47729,4.12508,358.42,12.6245,-3.08522,27.3008,19.2218
1980-03-05 00:06:17,1,1.05714,2.47143,-3.0,0.204041,1,1,23047.9,19241.9,1692,0.97653759,-1.1521053,103.08643,280.47705,4.91373,364.492,16.4044,-4.1829,19.5062,17.823
1980-03-05 00:07:38,1,0.914286,2.84286,-2.77143,0.520988,1,1,45779.3,21388.1,1692,0.97653645,-1.1521673,103.07056,280.47681,4.57269,362.152,14.4634,-0.0644681,27.4911,18.7907
1980-03-05 00:08:59,1,0.816667,2.13333,-3.2,0.252212,1,1,48026.0,22415.7,1692,0.97653532,-1.1522284,103.05859,280.47656,3.83572,363.142,18.8265,-0.618251,28.1576,19.2368
1980-03-05 00:10:20,1,1.1,1.62857,-3.7,0.608779,1,1,51991.9,20881.3,1692,0.97653306,-1.1523504,103.04639,280.47607,3.4629,372.323,5.67009,-0.6705,29.2972,18.5668
1980-03-05 00:11:41,1,0.357143,1.57143,-3.64286,0.348173,1,1,21202.2,21757.3,1692,0.97653192,-1.1524115,103.03442,280.47583,3.58778,359.678,16.0286,-12.0224,18.7089,18.9522
1980-03-05 00:13:02,1,0.471429,1.38571,-3.75714,0.316228,1,1,88942.7,22021.4,1692,0.97652966,-1.1525335,103.02246,280.47559,3.39071,356.01,10.4341,-14.41,38.3189,19.0669
1980-03-05 00:14:23,1,1.36667,1.15,-3.75,0.259272,1,1,16289.2,20370.3,1692,0.97652853,-1.1525955,103.0105,280.47534,3.71179,365.684,12.3049,-13.4735,16.3986,18.3382
1980-03-05 00:15:44,1,1.08571,0.971429,-3.75714,0.232993,1,1,48623.7,31510.2,1692,0.97652739,-1.1526566,102.99463,280.4751,3.4508,364.672,8.06241,-15.5018,28.3323,22.8078
1980-03-05 00:17:05,1,1.06667,1.41667,-3.98333,0.227303,1,1,20478.2,20656.4,1692,0.97652513,-1.1527786,102.98242,280.47461,3.83067,363.819,11.3199,-14.0931,18.3867,18.4665
1980-03-05 00:18:26,1,1.05714,1.41429,-3.77143,0.29277,1,1,79569.6,24654.8,1692,0.976524,-1.1528397,102.9707,280.47461,3.30271,369.252,4.74962,-3.82704,36.2436,20.1748
1980-03-05 00:19:47,1,1.0,1.37143,-4.1,0.305728,1,1,18646.7,21754.8,1692,0.97652286,-1.1529007,102.95874,280.47437,3.70457,362.418,10.4383,-12.2992,17.5452,18.9512
1980-03-05 00:21:08,1,0.2,1.95714,-3.71429,1.11776,1,1,83628.7,27516.7,1692,0.9765206,-1.1530237,102.94653,280.47388,3.69632,371.006,8.48011,-15.573,37.1566,21.3135
1980-03-05 00:22:29,1,-1.55714,2.92857,-2.62857,0.317516,1,1,42253.1,25089.6,1692,0.97651947,-1.1530848,102.93457,280.47363,3.66282,371.745,13.3183,-26.0009,26.4111,20.3519
1980-03-05 00:23:50,1,-1.6125,2.5,-2.625,0.581351,1,1,83999.4,21443.3,1692,0.97651833,-1.1531458,102.9187,280.47339,3.21819,377.473,4.94348,-32.5248,37.2388,18.815
1980-03-05 00:25:11,1,-1.35714,2.8,-2.77143,0.412558,1,1,63866.2,45184.9,1692,0.97651607,-1.1532679,102.90674,280.47314,3.53086,381.217,9.50812,-32.9875,32.4708,27.3121
1980-03-05 00:26:32,1,-1.62857,2.5,-2.57143,0.445384,1,1,83700.5,26959.8,1692,0.97651494,-1.1533289,102.89478,280.4729,3.82996,374.793,5.42973,-30.0808,37.1725,21.0968
1980-03-05 00:27:53,1,-0.0571429,2.28571,-2.95714,0.555859,1,1,53871.7,32119.6,1692,0.9765138,-1.1533909,102.88281,280.47266,4.09704,377.716,7.70488,-29.5031,29.8221,23.0273
1980-03-05 00:29:14,1,-2.42857,3.72857,-0.571429,1.36711,1,1,52939.4,32539.3,1692,0.9765116,-1.153513,102.87061,280.47217,3.32377,372.829,15.0034,-28.2336,29.5629,23.1772
1980-03-05 00:30:35,1,-2.68571,3.81429,-0.114286,0.838852,1,1,71164.4,29383.9,1692,0.97651047,-1.153574,102.85889,280.47217,3.33027,365.17,19.7852,-11.0646,34.2759,22.0248
1980-03-05 00:31:56,1,-3.15714,3.51429,0.914286,0.489064,1,1,27273.4,33761.2,1692,0.97650933,-1.153635,102.84302,280.47192,2.89541,358.68,25.0052,-19.4315,21.2191,23.6084
1980-03-05 00:33:17,1,-2.87143,3.58571,1.47143,0.349927,1,1,65113.0,41710.7,1692,0.97650707,-1.1537571,102.83081,280.47144,3.70135,360.657,24.6397,-9.66447,32.7862,26.2411
1980-03-05 00:34:38,1,-2.01429,2.72857,-0.957143,0.282843,1,1,122314.0,45084.1,1692,0.97650594,-1.1538191,102.81885,280.47119,4.59955,370.019,6.63224,-20.6658,44.9362,27.2816
1980-03-05 00:35:59,1,-2.05714,3.07143,-0.0571429,0.679135,1,1,52015.6,28377.5,1692,0.9765048,-1.1538801,102.80688,280.47095,3.14947,366.407,18.9766,-21.2251,29.3039,21.6444
1980-03-05 00:37:20,-1,nan,nan,nan,nan,1,4,nan,nan,1692,0.97650254,-1.1540022,102.79492,280.4707,nan,nan,nan,nan,nan,nan
1980-03-05 00:38:41,-1,nan,nan,nan,nan,1,4,nan,nan,1692,0.97650141,-1.1540632,102.78296,280.47046,nan,nan,nan,nan,nan,nan
1980-03-05 00:40:02,1,-3.07143,0.885714,5.92857,0.430472,1,1,39210.1,25240.5,1692,0.97649914,-1.1541862,102.76685,280.46997,3.51232,353.999,-5.44643,32.1546,25.4423,20.413
1980-03-05 00:41:23,1,-3.2,0.614286,5.7,0.513889,1,1,36720.4,25981.4,1692,0.97649801,-1.1542473,102.75488,280.46973,2.94727,357.886,8.65257,31.5778,24.6213,20.7105
1980-03-05 00:42:44,1,-2.41429,0.0428571,6.14286,0.583445,1,1,42600.7,37458.4,1692,0.97649688,-1.1543083,102.74316,280.46973,3.69324,354.382,-6.86921,34.9262,26.5195,24.8675
1980-03-05 00:44:05,1,-2.34286,-0.871429,6.34286,0.804325,1,1,50095.5,31938.0,1692,0.97649461,-1.1544304,102.73096,280.46924,3.66527,355.809,-18.4784,37.9166,28.7579,22.9621
1980-03-05 00:45:26,1,-2.41429,-0.342857,6.42857,0.507093,1,1,40056.0,21848.3,1692,0.97649348,-1.1544914,102.71899,280.46899,3.59543,361.26,-6.9682,30.8156,25.7153,18.9918
1980-03-05 00:46:47,1,-2.71429,1.35714,5.91429,0.388088,1,1,32600.4,26874.2,1692,0.97649235,-1.1545525,102.70703,280.46875,3.01767,360.172,7.11094,30.5643,23.199,21.0633
1980-03-05 00:48:08,1,-2.95714,1.82857,5.55714,0.631163,1,1,38617.1,18361.4,1692,0.97649008,-1.1546755,102.69116,280.46851,2.44878,360.566,3.09502,26.5855,25.2492,17.4105
1980-03-05 00:49:29,1,-2.7875,1.525,5.95,0.570499,1,1,39720.4,24280.6,1692,0.97648895,-1.1547365,102.6792,280.46826,3.0137,366.939,7.40647,31.9777,25.6073,20.0211
1980-03-05 00:50:50,1,-3.25,1.26667,5.61667,0.621378,1,1,37261.9,23961.4,1692,0.97648782,-1.1547976,102.66724,280.46802,3.19692,361.767,0.000781963,28.9838,24.8022,19.8891
1980-03-05 00:52:11,1,-4.15714,0.685714,5.21429,0.443087,1,1,40172.0,36857.0,1692,0.97648555,-1.1549196,102.65503,280.46753,3.64855,351.316,3.22878,25.7782,25.7525,24.6671
1980-03-05 00:53:32,1,-3.74286,0.942857,5.12857,0.907789,1,1,37616.7,18238.5,1692,0.97648442,-1.1549807,102.64307,280.46729,3.04807,357.718,-0.496315,27.0438,24.92,17.3521
1980-03-05 00:54:53,1,-3.78571,0.3,5.31429,0.801529,1,1,37050.9,29972.1,1692,0.97648329,-1.1550426,102.63135,280.46729,2.61437,357.614,1.63339,31.5213,24.7319,22.2442
1980-03-05 00:56:14,1,-3.95714,0.214286,5.21429,0.416497,1,1,58332.7,17459.4,1692,0.97648102,-1.1551647,102.61914,280.4668,3.15232,347.134,-2.95136,30.5328,31.0323,16.9774
1980-03-05 00:57:35,1,-4.22857,1.17143,4.28571,1.28936,1,1,25242.9,34826.9,1692,0.97647989,-1.1552258,102.60327,280.46655,3.25944,340.84,6.90291,6.4155,20.414,23.9781
1980-03-05 00:58:55,1,-3.51429,0.857143,5.57143,0.686607,1,1,38268.6,28840.5,1692,0.97647876,-1.1552868,102.59131,280.46631,3.23329,351.807,-0.1856,22.8194,25.135,21.8202
1980-03-05 01:04:01,1,-4.07143,1.31429,4.58571,0.285714,1,1,44784.3,22207.9,1692,0.97647196,-1.155654,102.54321,280.46509,3.32075,354.406,2.42135,22.1159,27.1907,19.1475
1980-03-05 01:04:20,1,-4.15714,1.45714,4.35714,0.383858,1,1,58315.3,31799.8,1692,0.9764846,-1.0120443,102.46155,280.38342,3.09382,349.554,4.88325,16.4334,31.0277,22.9124
1980-03-05 01:05:22,1,-3.87143,1.47143,4.68571,0.191663,1,1,37655.0,29042.4,1692,0.97647083,-1.155715,102.53125,280.46484,2.84763,342.773,5.07263,14.0108,24.9327,21.8965
1980-03-05 01:05:41,1,-4.11429,1.54286,4.58571,0.319438,1,1,86399.0,42516.4,1692,0.97647083,-1.155715,102.52734,280.46484,3.69551,348.99,9.04231,17.9555,37.767,26.4933
1980-03-05 01:07:02,1,-4.1,1.7,4.58571,0.180702,1,1,45671.1,29359.7,1692,0.97646856,-1.155838,102.51538,280.4646,2.67349,350.13,8.78344,16.193,27.4586,22.0158
1980-03-05 01:08:23,1,-4.32857,1.62857,4.64286,0.208982,1,1,29593.2,23365.3,1692,0.97646743,-1.155899,102.50342,280.46436,2.85523,346.39,9.76005,16.5143,22.1031,19.6401
1980-03-05 01:09:44,1,-4.48333,2.28333,3.55,0.821753,1,1,56884.8,30323.9,1692,0.9764663,-1.1559601,102.49146,280.46411,3.21395,350.018,6.87771,19.1187,30.6448,22.3744
1980-03-05 01:11:05,1,-4.36667,2.13333,4.3,0.210819,1,1,43567.9,24106.1,1692,0.97646403,-1.1560822,102.47925,280.46362,3.17837,343.088,15.599,6.61414,26.8189,19.949
1980-03-05 01:12:26,1,-4.87143,1.94286,3.61429,0.396412,1,1,43874.3,43022.3,1692,0.9764629,-1.1561432,102.46753,280.46362,3.69798,344.787,15.1658,8.59364,26.9131,26.6505
1980-03-05 01:15:08,1,-4.64,2.26,4.04,0.554256,1,1,51126.6,39058.2,1692,0.9764595,-1.1563272,102.43945,280.46289,3.51145,343.864,10.1796,7.08169,29.0524,25.393
1980-03-05 01:16:29,1,-4.62857,1.8,3.9,0.361403,1,1,35749.3,34711.3,1692,0.97645837,-1.1563883,102.42749,280.46265,3.48407,342.086,7.69643,20.2604,24.2936,23.9383
1980-03-05 01:17:50,1,-4.75714,2.22857,3.1,0.318799,1,1,35970.7,46003.4,1692,0.97645724,-1.1564493,102.41553,280.4624,3.58079,341.354,9.65668,12.4024,24.3687,27.5583
1980-03-05 01:19:11,1,-4.61429,1.88571,3.55714,0.395382,1,1,26696.0,27336.9,1692,0.97645497,-1.1565714,102.40356,280.46216,3.25788,342.414,14.0668,13.7679,20.9933,21.2438
1980-03-05 01:20:32,1,-4.38333,2.05,3.36667,0.250555,1,1,51111.7,45373.0,1692,0.97645384,-1.1566334,102.3916,280.46191,3.76325,346.908,12.4303,12.9845,29.0481,27.3689
1980-03-05 01:21:53,1,-4.64286,2.15714,3.15714,0.479796,1,1,34527.6,32109.9,1692,0.97645271,-1.1566944,102.37573,280.46167,3.41761,341.048,10.1495,18.8408,23.8749,23.0238
1980-03-05 01:23:14,1,-4.75,2.23333,2.08333,0.82023,1,1,34351.4,34569.3,1692,0.97645044,-1.1568165,102.36353,280.46118,3.47012,337.437,7.37196,14.3325,23.8139,23.8893
1980-03-05 01:24:35,1,-4.65,2.28333,1.88333,0.319287,1,1,29681.9,23980.2,1692,0.97644931,-1.1568775,102.35181,280.46118,3.36334,347.513,17.1763,-4.64666,22.1362,19.8968
1980-03-05 01:25:56,1,-4.98571,2.32857,1.61429,0.285714,1,1,56615.9,42114.7,1692,0.97644818,-1.1569386,102.33984,280.46094,3.4746,345.283,19.2763,-7.53404,30.5722,26.3679
1980-03-05 01:27:17,1,-4.52857,2.9,1.15714,0.46467,1,1,28027.1,20701.1,1692,0.97644591,-1.1570616,102.32764,280.46045,3.35654,347.949,18.0018,-11.8315,21.5103,18.4865
1980-03-05 01:28:38,1,-4.95714,2.18571,0.7,0.524502,1,1,54639.4,48424.6,1692,0.97644478,-1.1571226,102.31567,280.46021,3.783,345.52,19.1958,-11.5877,30.0338,28.2742
1980-03-05 01:29:59,1,-4.75714,2.58571,1.48571,0.494872,1,1,29559.9,22829.8,1692,0.97644365,-1.1571836,102.2998,280.45996,3.19733,346.288,17.87,-6.31427,22.0907,19.4137
1980-03-05 01:31:20,1,-5.01667,2.68333,0.616667,0.347611,1,1,46931.9,37949.6,1692,0.97644138,-1.1573057,102.28784,280.45972,3.41983,343.43,13.4037,-13.676,27.835,25.0301
1980-03-05 01:32:41,1,-4.75714,2.78571,0.485714,0.319438,1,1,24501.8,24803.2,1692,0.97644019,-1.1573668,102.27588,280.45947,3.00122,346.319,16.2458,-17.9057,20.1121,20.2354
1980-03-05 01:34:02,1,-4.61667,3.36667,1.2,0.316667,1,1,58792.9,48576.1,1692,0.97643793,-1.1574898,102.26367,280.45898,4.02147,346.004,22.349,-8.89419,31.1545,28.3184
1980-03-05 01:35:23,1,-4.38333,3.33333,1.4,0.374537,1,1,38052.0,29224.0,1692,0.97643679,-1.1575508,102.25171,280.45874,3.38267,347.146,19.9155,-6.28485,25.0638,21.9648
1980-03-05 01:36:44,1,-3.8,3.62857,0.985714,0.421368,1,1,40965.4,45389.6,1692,0.97643566,-1.1576118,102.23999,280.45874,3.49821,349.332,25.6713,-6.12739,26.0056,27.3739
1980-03-05 01:38:05,1,-4.35714,3.15714,1.12857,0.879007,1,1,53721.9,34630.7,1692,0.9764334,-1.1577339,102.22388,280.45825,3.44652,350.777,21.6059,-0.59583,29.7806,23.9105
1980-03-05 01:39:26,1,-4.74286,2.8,2.1,0.480646,1,1,54522.2,49072.0,1692,0.97643226,-1.157795,102.21191,280.45801,3.59634,348.289,21.7919,-12.0902,30.0016,28.4626
1980-03-05 01:40:47,1,-4.45714,0.871429,4.9,0.914286,1,1,42659.5,50374.7,1692,0.97643113,-1.1578569,102.19995,280.45776,3.8833,340.906,2.72695,11.2891,26.5378,28.8379
1980-03-05 01:42:08,1,-5.0,1.6,3.25,1.17011,1,1,56947.6,43776.7,1692,0.97642887,-1.157979,102.18799,280.45752,3.94591,346.614,24.7771,-16.954,30.6617,26.8831
1980-03-05 01:43:29,1,-5.44286,1.65714,3.0,0.732343,1,1,27385.0,30891.9,1692,0.97642773,-1.15804,102.17603,280.45728,3.1679,342.813,11.0205,2.8041,21.2625,22.5829
1980-03-05 01:44:50,1,-5.24286,2.14286,3.52857,1.24949,1,1,55267.1,43459.1,1692,0.9764266,-1.1581011,102.16406,280.45703,3.69999,340.832,3.87714,-19.849,30.2059,26.7854
1980-03-05 01:46:11,1,-5.5,8.57143,4.17143,1.88181,1,1,63830.2,208372.0,1692,0.97642434,-1.1582232,102.14795,280.45654,5.91953,422.703,53.7656,30.7364,32.4617,58.6513
1980-03-05 01:47:32,1,-4.9125,9.375,-0.9375,1.05253,1,1,72273.7,173855.0,1692,0.9764232,-1.1582851,102.13599,280.4563,7.23912,424.406,53.1669,-2.947,34.5421,53.5737
1980-03-05 01:48:53,1,-4.8375,9.525,1.9125,1.40724,1,1,96569.7,201762.0,1692,0.97642207,-1.1583462,102.12427,280.4563,8.17578,431.83,59.4486,-7.71782,39.9281,57.7135
1980-03-05 01:50:14,1,-4.74286,10.7857,3.57143,2.22775,1,1,82951.1,125032.0,1692,0.97641981,-1.1584682,102.11206,280.45581,7.81386,442.344,53.399,0.249888,37.0057,45.4328
1980-03-05 01:51:35,1,-5.3,8.94444,7.54444,1.01787,1,1,72953.1,154967.0,1692,0.97641867,-1.1585293,102.1001,280.45557,7.18982,423.589,36.2062,48.4421,34.704,50.5798
1980-03-05 01:52:56,1,-5.1,9.5625,3.8375,0.612117,1,1,66188.6,238245.0,1692,0.97641754,-1.1585903,102.08813,280.45532,8.66509,420.981,50.4582,17.4714,33.0559,62.7147
1980-03-05 01:54:17,1,-4.4625,9.725,3.3375,0.486377,1,1,83663.2,208003.0,1692,0.97641528,-1.1587133,102.07227,280.45508,8.10917,436.133,58.3661,22.0863,37.1642,58.5993
1980-03-05 01:56:59,1,-5.7,5.47778,8.95556,1.29777,1,1,65843.0,172680.0,1692,0.97641301,-1.1588354,102.04834,280.45459,7.51564,395.65,87.5917,45.6354,32.9695,53.3924
1980-03-05 01:58:19,1,-6.54,7.04,2.04,0.398999,1,1,88481.3,235662.0,1692,0.97641075,-1.1589575,102.03613,280.4541,6.62331,413.583,48.3027,18.6926,38.2194,62.3739
1980-03-05 01:59:40,1,-5.1,8.4875,-0.7375,0.684425,1,1,224332.0,289124.0,1692,0.97640961,-1.1590185,102.02417,280.45386,9.94825,432.765,46.936,-12.3049,60.856,69.0875
1980-03-05 02:01:01,1,-4.25,8.075,-1.5875,0.863405,1,1,135710.0,267591.0,1692,0.97640729,-1.1591415,102.01221,280.45361,8.07828,434.258,55.327,-10.3335,47.333,66.4651
1980-03-05 02:02:22,1,-4.0625,8.1625,-2.725,3.19751,1,1,125235.0,184978.0,1692,0.97640616,-1.1592026,102.00024,280.45337,8.61832,443.555,42.9839,-16.066,45.4696,55.2609
1980-03-05 02:03:44,1,-4.1375,8.675,-1.1125,1.63334,1,1,96922.2,149916.0,1692,0.97640502,-1.1592636,101.98438,280.45313,7.58262,442.753,52.2038,-13.4148,40.0009,49.7487
1980-03-05 02:05:05,1,-5.575,9.8,-0.2,0.845207,1,1,83649.7,313998.0,1692,0.97640276,-1.1593857,101.97217,280.45264,8.95533,434.733,56.8898,1.02988,37.1612,71.9981
1980-03-05 02:06:26,1,-5.875,9.15,-0.4625,0.742778,1,1,98296.7,229117.0,1692,0.97640163,-1.1594477,101.96045,280.45264,7.88113,433.482,53.7939,-7.17144,40.2835,61.5016
1980-03-05 02:07:47,1,-6.87778,9.43333,-2.61111,0.722991,1,1,268719.0,230055.0,1692,0.97640049,-1.1595087,101.94849,280.45239,10.8834,447.42,44.0835,-25.5077,66.605,61.6274
1980-03-05 02:09:08,1,-7.82222,8.34444,-5.17778,0.475317,1,1,148208.0,169095.0,1692,0.97639823,-1.1596308,101.93628,280.4519,9.26402,457.642,39.0873,-20.8227,49.4645,52.8351
1980-03-05 02:10:29,1,-6.4125,6.85,-5.15,1.85973,1,1,490436.0,201704.0,1692,0.97639704,-1.1596918,101.92432,280.45166,11.5486,440.765,39.5147,-17.056,89.9806,57.7052
1980-03-05 02:11:50,1,-2.9,6.94286,-6.07143,0.935905,1,1,265796.0,258233.0,1692,0.97639591,-1.1597528,101.90869,280.45166,11.1256,444.391,36.9395,-25.079,66.2418,65.2926
1980-03-05 02:13:11,1,-4.08889,4.14444,-7.15556,2.13784,1,1,292320.0,270682.0,1692,0.97639364,-1.1598759,101.89648,280.45117,11.7274,434.745,24.7941,-30.5831,69.4684,66.8479
1980-03-05 02:14:32,1,1.0125,0.5125,-10.9375,2.95077,1,1,57559.6,93146.9,1692,0.97639251,-1.1599369,101.88452,280.45093,9.57302,456.265,31.8666,5.11789,30.826,39.2141
1980-03-05 02:15:53,1,0.955556,-0.933333,-12.5667,0.539776,1,1,40790.3,72222.6,1692,0.97639138,-1.1599979,101.87256,280.45068,10.8439,467.769,-11.0729,6.9354,25.9499,34.5298
1980-03-05 02:17:14,1,1.6375,-0.5375,-12.475,0.715236,1,1,38845.8,76916.0,1692,0.97638911,-1.16012,101.8606,280.45044,10.9278,462.075,5.294,6.37531,25.3239,35.6341
1980-03-05 02:18:35,1,1.32222,-0.4,-12.2667,0.725378,1,1,44991.2,66686.6,1692,0.97638792,-1.160182,101.84863,280.4502,10.3748,466.386,7.84985,8.62218,27.2535,33.1801
1980-03-05 02:19:56,1,1.2,-2.4375,-12.2375,0.591344,1,1,47035.6,71273.5,1692,0.97638679,-1.160243,101.83276,280.44995,10.8669,462.316,-4.24058,8.25222,27.8658,34.3022
1980-03-05 02:21:17,1,1.75556,-2.37778,-11.9556,1.35401,1,1,38542.2,63210.9,1692,0.97638452,-1.1603651,101.82056,280.44946,10.7448,464.071,-5.23883,11.8184,25.2247,32.3038
1980-03-05 02:22:38,1,-0.2,2.025,-12.1125,0.507906,1,1,43172.6,71331.6,1692,0.97638339,-1.1604261,101.80884,280.44946,10.0864,463.836,6.66313,4.44139,26.697,34.3162
1980-03-05 02:23:59,1,0.0444444,2.75556,-12.3778,0.77603,1,1,47837.5,73712.6,1692,0.97638226,-1.1604872,101.79688,280.44922,10.7293,459.577,7.38416,4.82101,28.1023,34.8842
1980-03-05 02:25:20,1,0.475,1.2625,-12.825,0.539531,1,1,43501.6,75178.2,1692,0.97637999,-1.1606102,101.78467,280.44873,10.9402,461.633,2.82758,7.01994,26.7985,35.2293
1980-03-05 02:26:41,1,1.17778,3.18889,-12.3444,0.443053,1,1,44656.1,77712.3,1692,0.97637886,-1.1606712,101.77271,280.44849,10.4669,462.098,8.98517,2.63984,27.1518,35.8181
1980-03-05 02:28:02,1,0.975,3.125,-11.3375,2.45837,1,1,70472.3,69454.1,1692,0.97637653,-1.1607933,101.75684,280.44824,9.23251,471.319,35.947,7.90998,34.1089,33.8615
1980-03-05 02:29:23,1,1.5125,3.175,-11.4875,0.69933,1,1,71736.5,107811.0,1692,0.9763754,-1.1608543,101.74487,280.448,8.48012,460.643,2.75817,-17.5543,34.4134,42.188
1980-03-05 02:30:44,1,1.67778,2.82222,-12.1667,0.650736,1,1,63107.9,82155.0,1692,0.97637427,-1.1609163,101.73291,280.44775,10.0329,468.348,2.64408,-2.55794,32.2775,36.8277
1980-03-05 02:32:05,1,-1.0,1.16667,-12.7889,0.910976,1,1,53321.7,78587.2,1692,0.976372,-1.1610384,101.7207,280.44727,11.0856,451.959,-1.00509,2.44713,29.6695,36.0192
1980-03-05 02:33:26,1,-0.375,0.875,-12.375,0.505594,1,1,56835.1,83199.1,1692,0.97637087,-1.1610994,101.70898,280.44727,10.7525,462.073,-2.14902,0.5264,30.6314,37.061
1980-03-05 02:34:47,1,3.16667,4.8,-11.4333,0.253859,1,1,57577.8,92864.5,1692,0.97636974,-1.1611605,101.69702,280.44702,10.668,480.932,23.6113,1.64265,30.8309,39.1546
1980-03-05 02:36:08,1,2.8,2.8625,-12.2875,1.16659,1,1,79217.5,103469.0,1692,0.97636741,-1.1612835,101.68091,280.44653,10.6175,481.076,11.9295,3.56874,36.1633,41.3298
1980-03-05 02:37:29,1,2.45,3.375,-12.5375,0.446339,1,1,83215.4,111600.0,1692,0.97636628,-1.1613445,101.66895,280.44629,10.1732,471.784,15.0531,-2.1706,37.0646,42.923
1980-03-05 02:38:50,1,2.55556,3.42222,-12.4333,0.471143,1,1,71319.0,112918.0,1692,0.97636515,-1.1614056,101.65723,280.44629,10.3038,476.26,15.976,3.45691,34.3131,43.1757
1980-03-05 02:40:11,1,0.05,1.8875,-12.9375,0.428296,1,1,59406.1,95661.9,1692,0.97636288,-1.1615276,101.64502,280.4458,9.73234,462.733,6.23397,-1.32603,31.3165,39.74
1980-03-05 02:41:32,1,0.833333,1.25556,-12.8111,0.423099,1,1,58534.8,96505.8,1692,0.97636175,-1.1615887,101.63306,280.44556,8.05155,463.567,6.47402,-4.38296,31.086,39.9149
1980-03-05 02:42:53,1,-2.075,-1.575,-11.6125,1.50826,1,1,59291.7,95908.7,1692,0.97636062,-1.1616507,101.62109,280.44531,11.6005,454.647,-3.62338,0.783994,31.2863,39.7912
1980-03-05 02:44:14,1,-4.05556,-3.64444,-10.7778,0.922557,1,1,42381.0,90549.0,1692,0.97635829,-1.1617727,101.60522,280.44507,11.5845,430.423,-21.874,5.20727,26.4511,38.6634
1980-03-05 02:45:35,1,-4.83333,-7.27778,-8.98889,0.236748,1,1,63493.4,71513.7,1692,0.97635716,-1.1618338,101.59326,280.44482,9.98781,438.718,-38.5546,9.68874,32.3759,34.3599
1980-03-05 02:46:56,1,-5.7,-8.25,-7.525,0.815092,1,1,73409.4,67423.1,1692,0.97635603,-1.1618948,101.5813,280.44458,9.97281,440.611,-28.7014,14.0874,34.8124,33.3628
1980-03-05 02:48:17,1,-5.5375,-7.55,-8.7,0.885914,1,1,52043.3,85967.6,1692,0.97635376,-1.1620178,101.56909,280.44409,10.4366,440.146,-30.2075,13.7206,29.3117,37.6726
1980-03-05 02:49:38,1,-4.25,-8.1375,-8.6,0.842522,1,1,57102.0,83880.7,1692,0.97635263,-1.1620789,101.55737,280.44409,10.2698,445.234,-31.6579,12.3125,30.7032,37.2125
1980-03-05 02:50:59,1,-4.75,-5.1375,-9.725,1.35249,1,1,46953.8,85116.8,1692,0.9763515,-1.1621399,101.54541,280.44385,11.1769,448.212,-19.0077,5.11011,27.8415,37.4857
1980-03-05 02:52:20,1,-5.35,-3.2875,-12.0125,1.52633,1,1,39230.9,73234.8,1692,0.97634917,-1.162262,101.5293,280.44336,6.79461,447.013,-1.46389,3.66331,25.4491,34.771
1980-03-05 02:53:41,1,-5.45,-1.7625,-13.1125,0.922463,1,1,44841.8,85324.9,1692,0.97634804,-1.162323,101.51733,280.44312,7.22379,447.999,5.4002,1.1092,27.2082,37.5315
1980-03-05 02:55:02,1,-5.72222,-3.14444,-12.7111,2.44873,1,1,46513.3,72859.3,1692,0.97634578,-1.162446,101.50537,280.44287,7.42549,446.609,0.132555,2.2196,27.7106,34.6817
1980-03-05 02:56:23,1,-5.47778,-1.75556,-13.4556,0.359011,1,1,44646.2,90539.8,1692,0.97634465,-1.1625071,101.49341,280.44263,8.47525,442.476,-7.88141,-9.0923,27.1488,38.6614
1980-03-05 02:57:44,1,-4.925,-1.625,-13.3625,0.483315,1,1,34915.6,79236.7,1692,0.97634351,-1.1625681,101.48145,280.44238,7.48467,444.498,-6.49279,-7.56776,24.0087,36.1677
1980-03-05 02:59:05,1,-0.9625,1.0875,-12.95,0.84908,1,1,56349.5,97420.4,1692,0.97634125,-1.1626902,101.46924,280.44189,8.26338,470.19,13.0145,-22.9812,30.5002,40.1036
1980-03-05 03:00:26,1,-1.65,-0.1,-14.3,0.291548,1,1,60976.0,104940.0,1692,0.97634012,-1.1627522,101.45361,280.44189,5.97523,466.459,9.15772,-24.5159,31.7276,41.6224
1980-03-05 03:01:47,1,-2.21111,0.433333,-14.2111,0.545464,1,1,61801.2,97844.2,1692,0.97633892,-1.1628132,101.44165,280.44165,6.33343,457.078,11.5562,-20.643,31.9416,40.1907
1980-03-05 03:03:08,1,-1.425,0.3375,-13.7,0.645538,1,1,50422.3,107276.0,1692,0.97633666,-1.1629353,101.42944,280.44116,7.51585,463.409,7.4737,-23.5605,28.8515,42.0832
1980-03-05 03:04:29,1,-2.34444,0.155556,-13.9333,0.643294,1,1,45583.4,99365.2,1692,0.97633553,-1.1629963,101.41748,280.44092,8.79274,458.489,4.7205,-27.9161,27.4322,40.5019
1980-03-05 03:05:50,1,-2.0,1.725,-13.6625,0.683168,1,1,48450.4,95260.6,1692,0.97633439,-1.1630573,101.40552,280.44067,6.34834,465.451,11.5583,-31.4666,28.2818,39.6565
1980-03-05 03:07:11,1,-3.98889,2.68889,-13.1667,0.553552,1,1,48634.6,104449.0,1692,0.97633207,-1.1631804,101.39355,280.44043,5.76997,461.455,19.0139,-18.14,28.3355,41.525
1980-03-05 03:08:32,1,-4.0125,4.9,-11.7375,0.664031,1,1,21540.5,73080.1,1692,0.97633094,-1.1632414,101.37769,280.44019,5.80563,448.063,32.7456,-16.087,18.8576,34.7342
1980-03-05 03:09:53,1,-2.58889,3.63333,-12.0778,1.66681,1,1,58046.9,62780.8,1692,0.9763298,-1.1633024,101.36572,280.43994,4.49627,459.966,30.0872,-2.06233,30.9562,32.1937
1980-03-05 03:11:14,1,-1.8125,3.3625,-11.9375,0.336573,1,1,46742.6,122995.0,1692,0.97632748,-1.1634245,101.35352,280.43945,8.84252,462.343,18.3422,-27.3477,27.7788,45.0612
1980-03-05 03:12:35,1,-1.05,3.6,-12.0,0.469042,1,1,52960.7,137472.0,1692,0.97632635,-1.1634855,101.3418,280.43945,8.03325,473.477,22.727,-31.2209,29.5689,47.6392
1980-03-05 03:13:56,1,-0.755556,3.22222,-12.2111,0.772202,1,1,54732.7,170221.0,1692,0.97632521,-1.1635475,101.32983,280.43921,9.22955,471.762,17.5504,-31.8003,30.0595,53.0108
1980-03-05 03:15:17,1,-0.488889,3.38889,-11.3,0.86138,1,1,56477.8,149773.0,1692,0.97632295,-1.1636696,101.31763,280.43872,9.63628,471.077,22.2572,-31.5191,30.5349,49.725